This demonstration page uses our WeatherBlox Daily Observations layout. Learn more.

39.01783, -85.05884

Hourly Observations for August 8, 2019

Temp ( °F °C ) Dew Point ( °F °C ) Humidity (%) Winds ( mph kmh ) Pressure ( in mb ) Visibility ( mi km ) Precip ( " mm )
12:52 am 00:52 Mostly Clear 72 22.2 62 16.7 71 71 SW 5 7 29.83 1010 10 16.09344 0 0
1:52 am 01:52 Clear 69 20.6 62 16.7 78 78 W 5 7 29.83 1010 10 16.09344 0 0
2:52 am 02:52 Clear 65 18.3 62 16.7 90 90 WSW 3 6 29.83 1010 10 16.09344 0 0
3:52 am 03:52 Clear 65 18.3 62 16.7 90 90 SW 3 6 29.83 1010 10 16.09344 0 0
4:52 am 04:52 Clear 67 19.4 62 16.7 84 84 SW 6 9 29.83 1010 10 16.09344 0 0
5:52 am 05:52 Clear 66 18.9 62 16.7 87 87 WSW 5 7 29.83 1010 10 16.09344 0 0
7:52 am 07:52 Sunny 69 20.6 64 17.8 84 84 WSW 7 11 29.85 1011 10 16.09344 0 0
8:52 am 08:52 Sunny 74 23.3 65 18.3 74 74 WSW 6 9 29.85 1011 10 16.09344 0 0
9:52 am 09:52 Mostly Sunny 77 25 66 18.9 69 69 WSW 9 15 29.88 1012 10 16.09344 0 0
10:52 am 10:52 Mostly Sunny 80 26.7 66 18.9 62 62 W 10 17 29.85 1011 10 16.09344 0 0
11:52 am 11:52 Mostly Cloudy 83 28.3 65 18.3 55 55 W 17 28 29.85 1011 10 16.09344 0 0
12:52 pm 12:52 Partly Cloudy 84 28.9 65 18.3 53 53 WSW 10 17 29.85 1011 10 16.09344 0 0
1:52 pm 13:52 Partly Cloudy 86 30 65 18.3 49 49 W 14 22 29.85 1011 10 16.09344 0 0
2:52 pm 14:52 Partly Cloudy 86 30 64 17.8 48 48 W 15 24 29.85 1011 10 16.09344 0 0
3:52 pm 15:52 Mostly Sunny 87 30.6 66 18.9 50 50 WSW 10 17 29.85 1011 10 16.09344 0 0
4:52 pm 16:52 Partly Cloudy 87 30.6 66 18.9 50 50 WSW 8 13 29.83 1010 10 16.09344 0 0
5:52 pm 17:52 Partly Cloudy 87 30.6 65 18.3 48 48 WSW 12 19 29.83 1010 10 16.09344 0 0
6:52 pm 18:52 Mostly Cloudy 85 29.4 65 18.3 51 51 WSW 9 15 29.83 1010 10 16.09344 0 0
7:52 pm 19:52 Cloudy 83 28.3 65 18.3 55 55 WSW 7 11 29.83 1010 10 16.09344 0 0
8:52 pm 20:52 Cloudy with Light Rain 81 27.2 66 18.9 61 61 WSW 7 11 29.83 1010 10 16.09344 0.001 0.001
9:52 pm 21:52 Cloudy with Light Rain 78 25.6 66 18.9 67 67 W 7 11 29.85 1011 10 16.09344 0.001 0.001
10:52 pm 22:52 Mostly Clear 74 23.3 63 17.2 69 69 W 5 7 29.85 1011 10 16.09344 0.001 0.001
11:52 pm 23:52 Clear 72 22.2 63 17.2 73 73 WSW 6 9 29.85 1011 10 16.09344 0 0

Powered by AerisWeather